C/2015 V1 ( PanSTARRS )

Japanese version
Home page
Updated on November 23, 2017

---------------------------------------------------------------------

* Profile

Discovery Date November 2, 2015
Magnitude 20.2 mag
Discoverer Pan-STARRS 1 telescope (Haleakala)

* Pictures

* Orbital Elements

Epoch 2018 Jan. 2.0 TT = JDT 2458120.5
T 2017 Dec. 17.73408 TT                                 MPCW
q   4.2668081            (2000.0)            P               Q
z  -0.0001246      Peri.  179.63868     +0.95387796     +0.22989335
 +/-0.0000003      Node   197.19411     +0.27375920     -0.40230046
e   1.0005315      Incl.  139.22916     +0.12317764     -0.88617345
From 1419 observations 2015 Nov. 2-2017 Oct. 31, mean residual 0".4.

* Finding Charts

* Magnitudes Graph

        m1 = 6.0 + 5 log d + 10.0 log r

---------------------------------------------------------------------

The orbital elements are published on M.P.E.C. 2017-V13.
The charts are made with StellaNavigator Ver.8 (AstroArts).
The magnitudes graphs are made with Comet for Windows.

---------------------------------------------------------------------

Copyright(C) Seiichi Yoshida (comet@aerith.net). All rights reserved.